FW3646 Weather Reports


time (UTC)temp
C
wind
direction
speed
KPH
gust
KPH
rain 1hr
cm
rain 24hr
cm
rain mn
cm
humidity
%
barometer
mb
20260503195149 20 336 0.0 3.2 0.00 0.00 0.00 40 1012.5
20260503194904 20 341 0.0 1.6 0.00 0.00 0.00 39 1012.5
20260503194137 20 341 0.0 0.0 0.00 0.00 0.00 39 1012.5
20260503193636 21 341 0.0 0.0 0.00 0.00 0.00 38 1012.5
20260503193125 21 341 0.0 0.0 0.00 0.00 0.00 37 1012.5
20260503192611 21 341 0.0 0.0 0.00 0.00 0.00 37 1012.5
20260503192111 21 341 0.0 1.6 0.00 0.00 0.00 37 1012.5
20260503191832 21 341 0.0 3.2 0.00 0.00 0.00 36 1012.5
20260503191051 22 341 0.0 3.2 0.00 0.00 0.00 35 1012.4
20260503190547 22 154 0.0 1.6 0.00 0.00 0.00 36 1012.4
20260503190052 22 154 0.0 0.0 0.00 0.00 0.00 33 1012.4
20260503185533 22 154 0.0 0.0 0.00 0.00 0.00 33 1012.4
20260503185033 23 154 0.0 0.0 0.00 0.00 0.00 31 1012.4
20260503184533 23 154 0.0 0.0 0.00 0.00 0.00 30 1012.4
20260503184032 23 154 0.0 0.0 0.00 0.00 0.00 29 1012.4
20260503183532 23 154 0.0 0.0 0.00 0.00 0.00 29 1012.4
20260503183032 24 154 0.0 0.0 0.00 0.00 0.00 28 1012.4
20260503182533 24 154 0.0 0.0 0.00 0.00 0.00 28 1012.4
20260503182032 25 154 0.0 0.0 0.00 0.00 0.00 27 1012.3
20260503181534 25 154 0.0 0.0 0.00 0.00 0.00 26 1012.3
20260503181328 25 154 0.0 0.0 0.00 0.00 0.00 26 1012.3
20260503180533 25 154 0.0 0.0 0.00 0.00 0.00 26 1012.3
20260503180007 25 154 0.0 0.0 0.00 0.00 0.00 25 1012.2
20260503175509 25 154 0.0 0.0 0.00 0.00 0.00 25 1012.3
20260503175235 26 154 0.0 0.0 0.00 0.00 0.00 24 1012.3
20260503174452 26 154 0.0 3.2 0.00 0.00 0.00 24 1012.2
20260503173933 26 155 0.0 0.0 0.00 0.00 0.00 25 1012.2
20260503173430 26 155 0.0 3.2 0.00 0.00 0.00 25 1012.2
20260503172925 26 155 0.0 3.2 0.00 0.00 0.00 23 1012.3
20260503172651 26 147 0.0 3.2 0.00 0.00 0.00 23 1012.2
20260503171915 26 137 0.0 4.8 0.00 0.00 0.00 23 1012.2
20260503171427 26 137 0.0 4.8 0.00 0.00 0.00 23 1012.2
20260503170913 27 155 1.6 6.4 0.00 0.00 0.00 22 1012.2
20260503170412 27 190 1.6 6.4 0.00 0.00 0.00 22 1013.4
20260503150807 29 151 1.6 14.5 0.00 0.00 0.00 22 1012.7
20260503150308 29 4 1.6 8.0 0.00 0.00 0.00 22 1012.7
20260503140252 31 202 1.6 8.0 0.00 0.00 0.00 19 1013.4
20260503131144 31 110 1.6 11.3 0.00 0.00 0.00 22 1014.3
20260503130642 31 123 1.6 11.3 0.00 0.00 0.00 23 1014.4
20260503130138 31 52 3.2 8.0 0.00 0.00 0.00 26 1014.5
20260503120112 31 86 3.2 12.9 0.00 0.00 0.00 26 1016.7
20260503110544 29 162 1.6 8.0 0.00 0.00 0.00 28 1015.9
20260503090456 24 202 1.6 8.0 0.00 0.00 0.00 40 1018.4
20260503081353 21 167 1.6 6.4 0.00 0.00 0.00 45 1018.0
20260503081345 22 131 1.6 6.4 0.00 0.00 0.00 44 1018.0
20260503080340 21 149 1.6 6.4 0.00 0.00 0.00 45 1018.0
20260503080119 21 137 1.6 6.4 0.00 0.00 0.00 47 1017.9
20260503072833 17 191 1.6 8.0 0.00 0.00 0.00 53 1018.0
20260503072326 17 197 1.6 6.4 0.00 0.00 0.00 54 1017.9
20260503071823 16 38 1.6 6.4 0.00 0.00 0.00 56 1018.0
20260503071321 16 39 0.0 4.8 0.00 0.00 0.00 56 1018.0
20260503070823 15 31 1.6 4.8 0.00 0.00 0.00 57 1018.1
20260503070548 15 88 1.6 4.8 0.00 0.00 0.00 58 1018.1
20260503060236 10 33 1.6 4.8 0.00 0.00 0.00 73 1018.4
20260503054734 8 8 1.6 4.8 0.00 0.00 0.00 76 1018.3
20260503054234 8 334 0.0 3.2 0.00 0.00 0.00 77 1017.1
20260503053731 8 333 0.0 1.6 0.00 0.00 0.00 78 1018.3
20260503053225 7 333 0.0 0.0 0.00 0.00 0.00 78 1018.3
20260503052719 7 321 0.0 0.0 0.00 0.00 0.00 79 1018.2
20260503052438 7 321 0.0 0.0 0.00 0.00 0.00 79 1018.2
20260503051706 7 321 0.0 0.0 0.00 0.00 0.00 79 1018.2
20260503051653 7 321 0.0 0.0 0.00 0.00 0.00 79 1018.2
20260503050636 6 321 0.0 0.0 0.00 0.00 0.00 79 1018.1
20260503050416 6 321 0.0 0.0 0.00 0.00 0.00 79 1016.7
20260503045633 6 321 0.0 0.0 0.00 0.00 0.00 79 1018.1
20260503045132 6 321 0.0 0.0 0.00 0.00 0.00 79 1018.1
20260503044632 6 321 0.0 0.0 0.00 0.00 0.00 79 1018.1
20260503044105 6 321 0.0 0.0 0.00 0.00 0.00 79 1018.1
20260503043604 6 321 0.0 0.0 0.00 0.00 0.00 79 1018.1
20260503043346 6 321 0.0 0.0 0.00 0.00 0.00 79 1018.1
20260503042602 6 321 0.0 0.0 0.00 0.00 0.00 79 1016.6
20260503042343 6 321 0.0 0.0 0.00 0.00 0.00 78 1018.1
20260503041603 6 321 0.0 0.0 0.00 0.00 0.00 78 1018.1
20260503041104 6 321 0.0 0.0 0.00 0.00 0.00 78 1018.1
20260503040600 6 321 0.0 0.0 0.00 0.00 0.00 78 1018.1
20260503040052 6 321 0.0 0.0 0.00 0.00 0.00 78 1018.0
20260503035552 6 321 0.0 0.0 0.00 0.00 0.00 78 1018.0
20260503035044 6 321 0.0 0.0 0.00 0.00 0.00 78 1017.9
20260503034543 6 321 0.0 0.0 0.00 0.00 0.00 77 1017.9
20260503034036 6 321 0.0 0.0 0.00 0.00 0.00 76 1018.0
20260503033535 6 321 0.0 0.0 0.00 0.00 0.00 76 1017.8
20260503033010 6 321 0.0 0.0 0.00 0.00 0.00 76 1017.9
20260503032505 6 321 0.0 0.0 0.00 0.00 0.00 76 1017.8
20260503032004 6 321 0.0 0.0 0.00 0.00 0.00 76 1017.9
20260503031502 7 321 0.0 0.0 0.00 0.00 0.00 76 1017.9
20260503031002 7 321 0.0 0.0 0.00 0.00 0.00 75 1017.8
20260503030446 7 321 0.0 0.0 0.00 0.00 0.00 75 1017.9
20260503025938 7 321 0.0 0.0 0.00 0.00 0.00 75 1017.9
20260503025435 7 321 0.0 0.0 0.00 0.00 0.00 75 1017.9
20260503024938 7 321 0.0 0.0 0.00 0.00 0.00 74 1017.8
20260503024431 7 321 0.0 0.0 0.00 0.00 0.00 74 1017.9
20260503023932 7 321 0.0 0.0 0.00 0.00 0.00 73 1017.9
20260503023431 7 321 0.0 0.0 0.00 0.00 0.00 72 1017.8
20260503022915 7 321 0.0 0.0 0.00 0.00 0.00 73 1017.9
20260503022416 7 321 0.0 0.0 0.00 0.00 0.00 72 1017.9
20260503021907 7 321 0.0 0.0 0.00 0.00 0.00 72 1018.0
20260503021405 7 321 0.0 0.0 0.00 0.00 0.00 71 1018.0
20260503020905 7 321 0.0 0.0 0.00 0.00 0.00 71 1018.1
20260503020337 7 321 0.0 0.0 0.00 0.00 0.00 71 1018.1
20260503015835 8 321 0.0 0.0 0.00 0.00 0.00 71 1018.1
20260503015332 8 321 0.0 0.0 0.00 0.00 0.00 70 1018.1
20260503014832 8 321 0.0 0.0 0.00 0.00 0.00 69 1016.8
20260503014311 8 321 0.0 0.0 0.00 0.00 0.00 68 1018.1
20260503013805 8 321 0.0 0.0 0.00 0.00 0.00 68 1018.1
20260503013303 8 321 0.0 0.0 0.00 0.00 0.00 68 1018.1
20260503013256 8 321 0.0 0.0 0.00 0.00 0.00 67 1018.1
20260503012235 8 321 0.0 0.0 0.00 0.00 0.00 67 1018.1
20260503011708 8 321 0.0 0.0 0.00 0.00 0.00 67 1018.2
20260503011141 8 321 0.0 0.0 0.00 0.00 0.00 66 1018.2
20260503010637 8 321 0.0 0.0 0.00 0.00 0.00 66 1018.2
20260503010133 8 321 0.0 0.0 0.00 0.00 0.00 66 1018.3
20260503005635 8 321 0.0 1.6 0.00 0.00 0.00 66 1018.3
20260503005401 8 321 0.0 4.8 0.00 0.00 0.00 66 1018.3
20260503004852 8 319 0.0 4.8 0.00 0.00 0.00 65 1018.4
20260503004330 8 326 0.0 1.6 0.00 0.00 0.00 65 1018.3
20260503003607 9 326 0.0 1.6 0.00 0.00 0.00 65 1018.2
20260503003108 9 326 0.0 0.0 0.00 0.00 0.00 65 1018.3
20260503002606 9 326 0.0 0.0 0.00 0.00 0.00 65 1018.4
20260503002107 9 326 0.0 0.0 0.00 0.00 0.00 64 1018.4
20260503001605 9 326 0.0 0.0 0.00 0.00 0.00 64 1018.5
20260503001104 9 326 0.0 0.0 0.00 0.00 0.00 64 1018.5
20260503000606 9 326 0.0 0.0 0.00 0.00 0.00 63 1018.5
20260503000053 9 326 0.0 1.6 0.00 0.00 0.00 63 1018.6
20260502235544 9 326 0.0 4.8 0.00 0.00 0.00 63 1018.7
20260502235536 10 324 0.0 4.8 0.00 0.00 0.00 63 1018.8
20260502234535 10 332 0.0 0.0 0.00 0.00 0.00 62 1018.7
20260502234034 10 332 0.0 0.0 0.00 0.00 0.00 62 1018.6
20260502233535 10 332 0.0 0.0 0.00 0.00 0.00 62 1018.7
20260502233033 10 332 0.0 3.2 0.00 0.00 0.00 61 1017.9
20260502232533 10 332 0.0 3.2 0.00 0.00 0.00 61 1017.9
20260502232309 10 343 0.0 0.0 0.00 0.00 0.00 61 1018.8
20260502231523 10 343 0.0 0.0 0.00 0.00 0.00 61 1018.9
20260502231012 10 343 0.0 1.6 0.00 0.00 0.00 61 1018.9
20260502230525 10 343 0.0 1.6 0.00 0.00 0.00 60 1018.8
20260502230009 10 343 0.0 1.6 0.00 0.00 0.00 61 1018.7
20260502225507 11 343 0.0 3.2 0.00 0.00 0.00 60 1018.8
20260502224942 11 343 0.0 3.2 0.00 0.00 0.00 60 1018.8
20260502224709 11 266 0.0 0.0 0.00 0.00 0.00 59 1018.9
20260502223933 11 266 0.0 0.0 0.00 0.00 0.00 59 1018.9
20260502223434 11 253 0.0 0.0 0.00 0.00 0.00 58 1019.0
20260502222911 11 253 0.0 0.0 0.00 0.00 0.00 57 1019.1
20260502222653 11 253 0.0 1.6 0.00 0.00 0.00 57 1019.1
20260502221908 11 231 0.0 1.6 0.00 0.00 0.00 57 1019.1
20260502221407 11 228 0.0 3.2 0.00 0.00 0.00 56 1019.1
20260502221128 11 224 0.0 3.2 0.00 0.00 0.00 55 1019.0
20260502220334 11 206 0.0 0.0 0.00 0.00 0.00 54 1019.0
20260502215834 12 206 0.0 0.0 0.00 0.00 0.00 54 1019.0
20260502215331 12 206 0.0 0.0 0.00 0.00 0.00 54 1019.0
20260502215102 12 206 0.0 0.0 0.00 0.00 0.00 54 1019.0
20260502214315 12 206 0.0 0.0 0.00 0.00 0.00 53 1019.0
20260502214042 12 206 0.0 0.0 0.00 0.00 0.00 53 1019.0
20260502213314 12 206 0.0 0.0 0.00 0.00 0.00 53 1018.4
20260502212811 12 206 0.0 0.0 0.00 0.00 0.00 53 1019.0
20260502212306 12 206 0.0 0.0 0.00 0.00 0.00 53 1018.6
20260502211809 13 206 0.0 0.0 0.00 0.00 0.00 53 1019.0
20260502211536 13 206 0.0 0.0 0.00 0.00 0.00 52 1019.1
20260502210806 13 206 0.0 0.0 0.00 0.00 0.00 53 1019.1
20260502210321 13 206 0.0 0.0 0.00 0.00 0.00 53 1019.1
20260502210306 13 206 0.0 0.0 0.00 0.00 0.00 53 1019.1
20260502205549 13 206 0.0 0.0 0.00 0.00 0.00 51 1019.1
20260502204805 14 205 0.0 0.0 0.00 0.00 0.00 51 1019.1
20260502204305 14 205 0.0 0.0 0.00 0.00 0.00 50 1019.2
20260502203749 14 205 0.0 0.0 0.00 0.00 0.00 49 1019.2
20260502203245 15 205 0.0 0.0 0.00 0.00 0.00 48 1019.1
20260502202732 15 205 0.0 0.0 0.00 0.00 0.00 47 1019.3
20260502202516 15 205 0.0 0.0 0.00 0.00 0.00 47 1019.2
20260502201731 15 206 0.0 0.0 0.00 0.00 0.00 45 1019.2
20260502201459 15 206 0.0 0.0 0.00 0.00 0.00 44 1019.3
20260502200732 16 206 0.0 0.0 0.00 0.00 0.00 43 1019.3